{"data":{"norad_id":61753,"epoch":"2026-05-25T04:01:23.069568Z","epoch_age_seconds":60457,"freshness":"FRESH","line1":"1 61753U 24199U   26145.16762812  .00033497  00000+0  53305-3 0  9992","line2":"2 61753  97.3014  20.5757 0006863  28.0288 332.1333 15.53196967133989","mean_motion":15.53196967,"eccentricity":0.0006863,"inclination_deg":97.3014,"raan_deg":20.5757,"arg_perigee_deg":28.0288,"mean_anomaly_deg":332.1333,"bstar":0.00053305,"rev_number":13398,"period_min":92.712001799834,"perigee_km":402.74198005099,"apogee_km":412.05580661818,"semimajor_km":6785.5358933346,"source":"CELESTRAK","updated_at":"2026-05-25T13:38:23.294378Z"}}